"Pseudo-MPEC" for P12nuG0

Created 2026 Jun 17 18:35:06 UT using Find_Orb

Click here for an explanation of pseudo-MPECs

 
 Astrometry: 
     P12nuG0*0C2026 06 16.55445621 51 43.523-25 50 10.63   ~6GFK 21.52wXNEOCPF51
     P12nuG0 0C2026 06 16.56555621 51 44.122-25 50 11.75   ~6GFK 21.45wXNEOCPF51
     P12nuG0 0C2026 06 16.57663521 51 44.730-25 50 13.00   ~6GFK 21.17wXNEOCPF51
     P12nuG0 0C2026 06 16.58776321 51 45.329-25 50 14.07   ~6GFK 21.18wXNEOCPF51
     P12nuG0 $C2026 06 17.15501121 52 17.938-25 51 11.12   ~6H8K 20.7 GXNEOCPJ04
     P12nuG0 $C2026 06 17.16492521 52 18.461-25 51 12.66   ~6H8K 20.4 GXNEOCPJ04
     P12nuG0 $C2026 06 17.17483921 52 18.982-25 51 13.92   ~6H8K       XNEOCPJ04
     P12nuG0 KB2026 06 17.29948021 52 25.902-25 51 20.39   ~6HBK 21.4 VZNEOCPY05
     P12nuG0 KB2026 06 17.33469621 52 27.803-25 51 25.46   ~6HBK 19.0 VZNEOCPY05
     P12nuG0 0C2026 06 17.44628021 52 34.230-25 51 42.70   ~6HBZ 20.7 RVNEOCP291
     P12nuG0 0C2026 06 17.45405021 52 34.650-25 51 43.30   ~6HBZ 21.0 RVNEOCP291
     P12nuG0 0C2026 06 17.46182021 52 35.010-25 51 44.00   ~6HBZ 21.2 RVNEOCP291

Station data:
(291) LPL/Spacewatch II  (N31.961669 W111.599905)  US/Arizona.  Observers J.
   V. Scotti, R. S. McMillan. 1.8-m f/2.7 reflector + CCD.
(F51) Pan-STARRS 1, Haleakala  (N20.707234 W156.255910)  US/Hawaii.
   Observers J. Herman, T. Lowe, P. Minguez, A. Schultz, I. Smith. Measurers
   K. Chambers, T. de Boer, J. Fairlamb, H. Gao, M. Huber, C.-C. Lin, E.
   Magnier, Y. Ramanjooloo, R. Wainscoat, R. Weryk. 1.8-m Ritchey-Chrétien +
   CCD.
(J04) ESA Optical Ground Station, Tenerife  (N28.300957 W16.511820)  Canary
   Islands (Spain).  Observer F. Ocaña. Measurers M. Micheli, D. Koschny, E.
   Schwab, M. Busch, A. Knöfel. 1.0-m f/4.4 reflector + CCD.
(Y05) SONEAR Wykrota-CEAMIG, Serra da Piedade  (S19.824251 W43.690000)
   Brazil.  Observer C. Jacques. 0.45-m f/2.9 reflector + CMO.

Orbital elements:  P12nuG0
   Perihelion 2026 Nov 21.637021 +/- 79.2 TT = 15:17:18.5 (JD 2461366.137021)
Epoch 2026 Jun 17.0 TT = JDT 2461208.5   Earth MOID: 0.4643   Ma: 0.0479
M 312.717937726 +/- 24              (J2000 ecliptic)             AutoNEOCP
n   0.299942628 +/- 0.0895          Peri.  355.643836 +/- 49
a   2.210262833 +/- 0.44            Node    23.253247 +/- 7
e   0.33836732 +/- 0.129            Incl.    7.245313 +/- 0.53
P   3.28599                H 18.14  G  0.15   U 11.1  SR
q 1.462382104 +/- 0.208    Q 2.958143562 +/- 1.28
From 12 observations 2026 June 16-17 (21.8 hr); mean residual 0".48
Residuals in arcseconds: 
260616 F51  .00   .01+    260617 J04  .63+  .43+    260617 Y05  .97+  .58-    
260616 F51  .07-  .04+    260617 J04  .50+  .02-    260617 291  .57-  .34-    
260616 F51  .01+  .07-    260617 J04  .34+  .20-    260617 291  .49-  .09-    
260616 F51  .06-  .01-    260617 Y05  .57+  .91+    260617 291  1.2-  .05+    

Ephemerides (geocentric):
Date (UTC) HH   RA             Dec           delta  r     elong  mag " sig PA
---- --------  ------------   ------------  ------ ------ -----  --- --------
2026 06 17 19  21 52 53.523   -25 52 12.78  1.1243 1.8889 123.8 21.0 1.85  72
2026 06 17 20  21 52 55.847   -25 52 17.30  1.1238 1.8887 123.9 21.0 2.05  74
2026 06 17 21  21 52 58.169   -25 52 21.83  1.1233 1.8886 123.9 21.0 2.27  76
2026 06 17 22  21 53 00.488   -25 52 26.38  1.1228 1.8884 123.9 21.0 2.50  78
2026 06 17 23  21 53 02.805   -25 52 30.95  1.1223 1.8882 124.0 21.0 2.74  80
2026 06 18 00  21 53 05.119   -25 52 35.53  1.1218 1.8880 124.0 21.0 2.99  81
2026 06 18 01  21 53 07.430   -25 52 40.13  1.1213 1.8879 124.0 21.0 3.26  82
2026 06 18 02  21 53 09.739   -25 52 44.74  1.1208 1.8877 124.0 21.0 3.54  83
2026 06 18 03  21 53 12.046   -25 52 49.36  1.1203 1.8875 124.1 21.0 3.83  84
2026 06 18 04  21 53 14.349   -25 52 54.00  1.1198 1.8874 124.1 21.0 4.13  84
2026 06 18 05  21 53 16.651   -25 52 58.66  1.1194 1.8872 124.1 21.0 4.44  85
2026 06 18 06  21 53 18.949   -25 53 03.33  1.1189 1.8870 124.2 21.0 4.77  86
2026 06 18 07  21 53 21.245   -25 53 08.01  1.1184 1.8868 124.2 21.0 5.10  86
2026 06 18 08  21 53 23.538   -25 53 12.71  1.1179 1.8867 124.2 21.0 5.45  87
2026 06 18 09  21 53 25.829   -25 53 17.42  1.1174 1.8865 124.3 21.0 5.81  87
2026 06 18 10  21 53 28.117   -25 53 22.15  1.1169 1.8863 124.3 21.0 6.17  88
2026 06 18 11  21 53 30.403   -25 53 26.90  1.1164 1.8862 124.3 21.0 6.56  88
2026 06 18 12  21 53 32.686   -25 53 31.66  1.1159 1.8860 124.3 20.9 6.95  88
2026 06 18 13  21 53 34.966   -25 53 36.43  1.1154 1.8858 124.4 20.9 7.35  89
2026 06 18 14  21 53 37.244   -25 53 41.22  1.1149 1.8856 124.4 20.9 7.76  89
2026 06 18 15  21 53 39.519   -25 53 46.02  1.1145 1.8855 124.4 20.9 8.19  89
2026 06 18 16  21 53 41.792   -25 53 50.84  1.1140 1.8853 124.5 20.9 8.63  89
2026 06 18 17  21 53 44.061   -25 53 55.67  1.1135 1.8851 124.5 20.9 9.07  90
2026 06 18 18  21 53 46.329   -25 54 00.52  1.1130 1.8849 124.5 20.9 9.53  90
2026 06 18 19  21 53 48.593   -25 54 05.38  1.1125 1.8848 124.6 20.9 10.0  90
2026 06 18 20  21 53 50.855   -25 54 10.26  1.1120 1.8846 124.6 20.9 10.5  90
2026 06 18 21  21 53 53.115   -25 54 15.15  1.1115 1.8844 124.6 20.9 11.0  90
2026 06 18 22  21 53 55.372   -25 54 20.06  1.1110 1.8843 124.7 20.9 11.5  90
2026 06 18 23  21 53 57.626   -25 54 24.98  1.1106 1.8841 124.7 20.9 12.0  91
2026 06 19 00  21 53 59.877   -25 54 29.92  1.1101 1.8839 124.7 20.9 12.5  91
2026 06 19 01  21 54 02.126   -25 54 34.87  1.1096 1.8837 124.7 20.9 13.0  91
2026 06 19 02  21 54 04.372   -25 54 39.84  1.1091 1.8836 124.8 20.9 13.6  91
2026 06 19 03  21 54 06.616   -25 54 44.82  1.1086 1.8834 124.8 20.9 14.2  91
2026 06 19 04  21 54 08.857   -25 54 49.82  1.1081 1.8832 124.8 20.9 14.7  91
2026 06 19 05  21 54 11.095   -25 54 54.83  1.1076 1.8831 124.9 20.9 15.3  91
2026 06 19 06  21 54 13.331   -25 54 59.86  1.1072 1.8829 124.9 20.9 15.9  91
2026 06 19 07  21 54 15.564   -25 55 04.90  1.1067 1.8827 124.9 20.9 16.5  91
2026 06 19 08  21 54 17.795   -25 55 09.96  1.1062 1.8825 125.0 20.9 17.1  91
2026 06 19 09  21 54 20.022   -25 55 15.03  1.1057 1.8824 125.0 20.9 17.7  91
2026 06 19 10  21 54 22.247   -25 55 20.12  1.1052 1.8822 125.0 20.9 18.4  92
2026 06 19 11  21 54 24.470   -25 55 25.22  1.1047 1.8820 125.0 20.9 19.0  92
2026 06 19 12  21 54 26.690   -25 55 30.34  1.1042 1.8818 125.1 20.9 19.7  92
2026 06 19 13  21 54 28.907   -25 55 35.47  1.1038 1.8817 125.1 20.9 20.3  92
2026 06 19 14  21 54 31.121   -25 55 40.62  1.1033 1.8815 125.1 20.9 21.0  92
2026 06 19 15  21 54 33.333   -25 55 45.78  1.1028 1.8813 125.2 20.9 21.7  92
2026 06 19 16  21 54 35.542   -25 55 50.96  1.1023 1.8812 125.2 20.9 22.4  92
2026 06 19 17  21 54 37.749   -25 55 56.15  1.1018 1.8810 125.2 20.9 23.1  92
2026 06 19 18  21 54 39.953   -25 56 01.36  1.1013 1.8808 125.3 20.9 23.8  92